User: anonymous   Login
Location: *
(46.3500°N, 10.9000°E)
Time: 15:44:12
(UTC+00:00)
Language:

Transit 2A Rocket - Orbit

View from above orbital plane
View from above orbital plane
View from above satellite
View from above satellite

Ground track
Ground track

The orbit data is extracted from the following two-line orbital elements,

1    47U 60007C   21109.12935664  .00000026  00000-0  30925-4 0  9994
2    47  66.6669  57.6352 0219995  79.2208 283.3576 14.42143995179208
Epoch (UTC): 19 April 2021 03:06:16
Eccentricity: 0.0219995
inclination: 66.6669°
perigee height: 594 km
apogee height: 908 km
right ascension of ascending node: 57.6352°
argument of perigee: 79.2208°
revolutions per day: 14.42143995
mean anomaly at epoch: 283.3576°
orbit number at epoch: 17920

The dashed part of the orbit path shows where the satellite is in the earth's shadow,  

DLR